Regional Weather Roundup
Issued by NWS

Home | Current Version | Previous Version | Graphics & Text | Print | Product List | Glossary On
Versions: 1 2 3 4 5 6 7 8 9 10 11 12 13 14 15 16 17 18 19 20 21 22 23 24 25 26 27 28 29 30 31 32 33 34 35 36 37 38 39 40 41 42 43 44 45 46 47 48 49 50
000
ASUS43 KTOP 261208
RWRKS

WEATHER ROUNDUP FOR KANSAS
NATIONAL WEATHER SERVICE GOODLAND KS
700 AM CDT MON JUN 26 2017

NOTE:  "FAIR" INDICATES FEW OR NO CLOUDS BELOW 12,000 FEET WITH NO
SIGNIFICANT WEATHER AND/OR OBSTRUCTIONS TO VISIBILITY.

KSZ001>006-013>018-027>032-041>047-261300-
NORTHWEST KANSAS

CITY           SKY/WX    TMP DP  RH WIND       PRES   REMARKS
GOODLAND       MOCLDY    57  56  96 S8        30.24S FOG
6HR MIN TEMP:  57; 6HR MAX TEMP:  58;

HAYS           CLOUDY    59  56  89 S3        30.23S
HILL CITY      CLOUDY    59  57  93 W5        30.23S
6HR MIN TEMP:  56; 6HR MAX TEMP:  59;

RUSSELL        CLOUDY    59  56  89 CALM      30.21F
6HR MIN TEMP:  57; 6HR MAX TEMP:  59;

$$

KSZ061>065-074>080-084>089-261300-
SOUTHWEST KANSAS

CITY           SKY/WX    TMP DP  RH WIND       PRES   REMARKS
DODGE CITY     CLOUDY    57  56  96 CALM      30.23S FOG
6HR MIN TEMP:  56; 6HR MAX TEMP:  60;

ELKHART          N/A     58  49  72 NW1         N/A
GARDEN CITY    FOG       56  55  97 NE5       30.24S VSB 1/4
6HR MIN TEMP:  55; 6HR MAX TEMP:  61;

GREAT BEND     CLOUDY    60  57  89 SE3       30.23R
LIBERAL        CLOUDY    60  59  96 SE6       30.24S FOG
PRATT          CLOUDY    58  51  77 SE5       30.22S
6HR MIN TEMP:  58; 6HR MAX TEMP:  59;

$$

KSZ066>073-081>083-090>101-261300-
SOUTHEAST KANSAS

CITY           SKY/WX    TMP DP  RH WIND       PRES   REMARKS
CHANUTE          N/A    N/A N/A N/A MISG      30.25R
COFFEYVILLE    CLOUDY    65  57  75 E6        30.20F
6HR MIN TEMP:  62; 6HR MAX TEMP:  66;

HUTCHINSON     CLOUDY    60  55  83 E8        30.22F
6HR MIN TEMP:  56; 6HR MAX TEMP:  61;

MEDICINE LODGE   N/A     60  53  77 CALM      30.21S
NEWTON         CLOUDY    61  55  81 E3        30.24R
PARSONS        MOCLDY    65  55  70 CALM      30.22F
6HR MIN TEMP:  63; 6HR MAX TEMP:  66; 6HR PCP: TRACE;

WICHITA INTL   CLOUDY    63  55  75 E6        30.21S
6HR MIN TEMP:  62; 6HR MAX TEMP:  65;

WICHITA JABRA  CLOUDY    61  55  81 SE3       30.21S
6HR MIN TEMP:  58; 6HR MAX TEMP:  61;

WICHITA MCCONL CLOUDY    63  53  72 SE7       30.21S
WINFIELD       CLOUDY    65  54  67 E6        30.22R
6HR MIN TEMP:  64; 6HR MAX TEMP:  66;

$$

KSZ007>012-019>026-033>040-048>060-102>105-261300-
NORTHEAST KANSAS

CITY           SKY/WX    TMP DP  RH WIND       PRES   REMARKS
CONCORDIA      CLOUDY    58  55  90 W3        30.21S
6HR MIN TEMP:  55; 6HR MAX TEMP:  59;

EMPORIA        MOCLDY    62  57  83 S8        30.20F
6HR MIN TEMP:  59; 6HR MAX TEMP:  62;

LAWRENCE       SUNNY     52  52 100 CALM      30.20F FOG
6HR MIN TEMP:  48; 6HR MAX TEMP:  54;

MANHATTAN      PTCLDY    57  55  93 CALM      30.20S
6HR MIN TEMP:  53; 6HR MAX TEMP:  59;

MARYSVILLE     CLOUDY    55  54  94 SW3       30.20F
OLATHE IND     SUNNY     54  54 100 S5        30.21S
6HR MIN TEMP:  50; 6HR MAX TEMP:  57;

OLATHE EXE     SUNNY     53  53 100 S3        30.20S
6HR MIN TEMP:  50; 6HR MAX TEMP:  59;

SALINA         PTCLDY    62  57  83 S8        30.20F
6HR MIN TEMP:  60; 6HR MAX TEMP:  64; 6HR PCP: TRACE;

TOPEKA BILLARD PTCLDY    59  58  96 CALM      30.20S
6HR MIN TEMP:  53; 6HR MAX TEMP:  59;

TOPEKA FORBES  PTCLDY    59  58  96 S5        30.20S
6HR MIN TEMP:  54; 6HR MAX TEMP:  59;

$$




USA.gov is the U.S. government's official web portal to all federal, state and local government web resources and services.